Temp
64 64 65 65 65 67 67 66 67 66 67 67 66 66 66 67 66 66 66 65 64 65 65 64 64 65 66 67 66 65 64 63 62 60 59 60 60 58 61 61 62 62 61 61 61 57 57 54 56 61 61 61 62 64 64 65 65 64 63 64 64 63 62
65 66 65 66 65 66 65 64 65 66 65 65 66 66 66 66 66 66 64 64 64 65 66 65 64 66 66 64 64 64 62 62 63 61 60 60 60 60 59 59 60 60 60 61 61 61 55 56 54 56 58 60 61 61 63 64 65 64 64 64 64 62 60
65 66 65 64 64 64 63 63 63 64 64 64 65 64 65 67 64 64 66 64 64 66 66 65 67 66 65 65 65 64 63 62 62 62 61 60 61 61 60 59 57 57 58 58 58 59 59 58 55 57 58 60 59 60 62 63 64 64 64 63 62 62 59
65 64 63 63 63 62 64 63 63 63 63 63 64 63 64 65 64 64 63 64 64 64 65 65 64 66 63 64 65 65 64 63 62 62 62 62 61 60 60 59 58 59 57 55 58 58 57 56 58 59 61 63 61 59 61 62 64 65 65 62 61 60 59
66 65 64 63 62 61 62 62 61 62 62 63 62 63 63 63 63 63 63 64 64 63 63 63 64 63 64 64 64 64 64 63 62 62 61 60 60 60 59 59 59 58 57 58 58 58 58 58 60 59 60 61 60 60 63 60 64 64 64 63 62 60 59
67 66 65 64 62 62 62 62 62 62 61 62 61 63 64 64 62 62 63 62 63 64 63 64 63 63 63 63 64 63 63 62 61 62 61 61 61 60 59 59 60 60 59 59 60 60 61 62 62 60 61 61 55 57 61 62 60 63 63 63 63 61 60
67 67 66 66 64 64 63 63 63 62 61 62 62 61 62 64 63 62 61 61 61 61 62 62 62 63 62 65 63 62 62 63 62 62 62 61 61 60 61 59 60 60 60 61 60 61 60 61 59 59 58 58 56 60 61 60 64 61 61 63 63 62 61
67 66 66 66 65 64 63 64 63 62 63 62 61 63 63 61 61 63 63 61 62 62 62 63 64 61 61 63 62 61 61 61 61 61 62 62 62 62 60 60 60 60 59 61 60 62 63 62 61 60 59 56 55 56 57 60 58 59 61 60 63 62 61
66 66 65 66 65 65 64 63 63 63 63 62 63 63 62 63 62 62 61 61 61 61 60 61 62 62 61 61 61 60 61 65 61 60 60 61 61 60 60 60 61 60 61 61 62 60 62 62 62 61 60 59 56 52 53 54 56 57 63 59 60 62 61
66 65 65 64 65 65 64 64 64 63 63 63 63 62 62 60 60 61 61 60 60 61 61 61 61 60 60 60 59 59 59 60 60 60 59 60 59 59 59 60 59 59 59 61 61 61 61 61 61 60 60 61 58 55 51 50 53 52 60 61 57 60 61
65 65 64 65 64 64 64 64 63 63 63 64 64 63 61 61 62 63 59 60 60 60 60 61 61 60 59 60 59 59 60 59 58 58 59 61 61 61 61 62 62 59 58 59 59 59 61 62 62 61 59 59 61 58 52 50 52 53 54 59 58 58 60
63 64 64 65 65 65 64 64 64 63 63 63 63 62 61 61 60 59 59 58 58 60 60 60 60 60 59 59 59 58 58 58 58 58 59 60 60 62 61 60 59 59 60 61 62 62 62 62 60 62 58 59 59 60 58 55 51 56 53 54 58 62 60
63 64 64 64 64 64 65 64 64 63 63 63 62 61 61 61 60 59 58 59 59 59 59 60 61 60 58 57 58 59 59 58 59 58 60 61 65 61 59 59 58 60 59 61 63 62 61 62 63 62 60 60 59 58 57 54 53 54 55 53 56 60 61
63 64 64 63 64 63 63 64 64 64 63 63 63 62 62 61 61 60 59 59 59 57 58 60 59 58 56 57 58 58 59 59 59 59 59 59 60 59 59 58 58 58 57 59 59 60 62 63 62 60 60 59 58 60 60 57 55 54 57 55 55 59 60
62 63 63 62 63 63 63 64 64 64 63 64 64 62 63 62 60 61 60 59 58 58 59 58 57 59 60 58 57 60 59 58 58 58 57 59 58 60 58 58 59 58 59 60 58 64 63 63 64 63 61 60 58 59 58 56 53 52 54 57 58 59 59
62 62 63 61 62 62 62 63 64 63 63 64 63 63 62 62 61 61 60 60 60 58 59 57 57 60 58 57 57 58 59 57 57 58 59 58 60 59 59 58 57 58 61 60 59 60 63 64 63 61 59 60 59 58 59 61 57 54 55 55 55 58 56
62 62 63 61 62 62 62 63 63 63 63 63 63 60 62 63 61 60 61 61 60 59 58 59 60 60 59 57 59 60 58 58 59 58 59 60 60 60 57 57 57 57 57 58 57 58 58 57 60 60 59 58 59 59 59 57 60 53 52 55 54 61 58
61 62 62 61 62 62 62 63 62 63 62 63 62 62 63 62 60 61 61 61 60 60 61 61 61 59 58 58 60 61 59 58 58 60 60 60 61 58 57 56 57 56 55 57 55 57 59 58 60 57 59 59 60 59 59 59 57 56 55 54 55 58 56
61 62 62 61 62 63 62 62 61 61 62 62 61 62 63 61 62 61 61 61 61 61 61 61 61 60 59 59 59 58 58 58 58 60 61 61 60 60 58 57 57 56 55 55 56 55 57 57 58 57 58 60 59 57 56 55 55 55 57 54 55 57 55
58 59 61 62 62 62 62 62 62 62 61 60 60 60 62 61 60 62 63 61 62 62 61 61 61 61 61 60 61 59 58 57 57 59 58 60 61 60 60 59 57 57 56 54 56 56 56 56 57 56 56 56 59 56 56 56 55 54 53 53 53 53 54
59 60 61 61 62 61 61 60 62 60 61 61 60 61 61 61 61 61 63 61 62 62 61 60 61 62 62 61 60 58 59 57 58 59 59 59 60 59 59 61 61 58 57 57 57 56 57 57 57 55 54 55 55 54 54 54 54 53 53 52 53 53 51
60 59 60 61 61 61 61 61 62 61 61 62 62 61 61 62 62 62 61 59 61 61 63 62 62 61 61 59 60 59 60 60 58 58 58 57 58 59 57 57 57 56 60 62 57 56 57 58 56 54 53 53 53 53 53 53 53 51 50 51 52 51 49
58 59 59 60 61 61 61 60 61 61 60 61 61 60 60 61 60 60 62 58 58 60 61 61 60 59 58 61 59 61 59 59 58 58 59 57 57 57 57 56 57 62 59 55 52 48 48 51 54 56 53 53 54 55 53 52 51 52 51 49 50 49 49
59 59 58 59 59 61 60 59 58 59 58 57 56 57 58 58 57 57 56 56 55 56 54 54 44 51 52 55 61 60 59 58 56 56 57 56 55 56 55 55 54 56 56 55 51 47 46 45 45 45 47 49 53 55 56 52 51 51 51 50 50 48 47
59 59 57 57 57 58 59 59 59 60 58 56 56 56 58 57 56 55 56 54 54 54 55 52 46 48 48 48 53 58 60 60 59 58 59 57 57 55 55 55 55 56 55 54 52 50 47 44 43 43 43 44 44 45 49 52 50 49 48 50 50 49 48
59 58 58 58 58 58 58 58 58 59 58 56 55 57 57 55 55 55 55 54 54 53 53 50 47 47 46 46 45 49 56 58 60 58 57 56 55 54 55 55 55 56 58 57 56 53 51 48 44 43 43 44 44 44 44 46 49 53 52 52 50 49 48
58 58 59 60 59 58 57 58 57 56 57 56 56 55 56 56 55 54 53 53 53 54 54 50 46 45 44 44 44 47 54 56 56 56 56 56 56 55 54 53 54 55 55 56 55 55 53 51 49 49 49 48 48 45 43 44 45 46 51 54 52 50 50
58 58 58 57 57 57 58 56 58 57 57 56 56 55 55 54 55 54 53 53 53 54 56 50 45 43 42 43 43 44 51 55 56 55 55 56 56 56 56 55 55 56 55 55 56 55 55 52 51 51 50 49 48 48 48 49 51 52 53 52 51 51 49
56 57 57 57 57 56 55 55 55 56 55 55 54 55 54 56 56 55 54 53 53 54 55 48 44 43 42 42 43 48 50 53 54 54 54 55 56 56 56 56 55 56 56 56 52 48 51 53 52 51 49 48 46 43 43 44 42 47 51 51 50 49 48
55 55 56 55 54 54 54 55 55 55 56 54 55 55 56 56 56 56 55 54 54 54 54 50 45 44 43 42 45 50 50 52 53 52 53 54 55 56 56 57 56 55 56 56 50 44 46 49 52 50 50 49 47 46 45 45 42 41 43 44 44 43 42
53 53 53 54 54 54 53 54 55 55 53 53 54 54 57 57 56 57 56 55 55 55 55 53 47 45 44 43 46 52 51 52 52 51 52 53 54 55 56 56 57 56 56 56 46 43 44 51 52 51 50 50 48 47 46 48 47 44 40 40 40 40 40
53 53 53 54 53 53 53 54 54 55 55 55 55 53 54 56 57 57 57 57 56 56 55 54 48 46 45 44 46 51 52 53 52 51 52 52 53 53 53 53 52 53 55 54 44 43 43 51 55 54 52 50 47 48 48 48 47 45 44 45 44 44 43
54 54 54 55 55 54 53 55 55 55 54 55 55 54 54 54 52 55 57 58 57 57 56 56 54 47 46 45 44 50 52 52 52 51 53 53 52 50 50 51 49 45 47 46 42 41 41 47 56 55 53 50 49 49 49 47 45 45 43 43 43 43 44
52 53 54 54 54 54 55 54 55 54 53 53 53 54 54 54 54 54 53 55 57 57 57 57 55 47 46 45 43 44 51 53 53 53 53 52 52 50 48 46 44 43 42 41 42 42 44 45 47 53 53 52 51 49 47 47 45 45 45 42 42 42 42
52 52 53 53 52 52 53 54 54 54 54 52 52 52 51 52 53 53 55 53 55 56 56 55 57 49 44 43 42 41 49 53 53 53 53 53 52 50 49 45 45 43 42 42 42 42 42 42 43 48 47 43 42 43 49 47 47 46 46 43 41 41 42
50 52 51 50 50 49 50 51 52 52 52 51 51 51 51 53 52 53 52 53 52 54 54 54 50 51 43 42 41 41 42 48 47 53 53 52 50 48 46 45 44 41 40 40 41 41 41 41 43 44 41 42 43 43 45 45 44 45 41 42 42 42 41
50 49 49 48 48 48 48 49 49 50 50 50 50 49 49 50 49 49 50 52 52 51 53 54 49 48 46 40 40 40 39 40 41 48 53 52 50 47 44 42 41 39 40 40 40 41 42 43 43 40 42 42 43 44 46 45 43 44 40 39 41 41 41
MSLP
1016.62 1016.90 1016.90 1016.98 1016.94 1016.98 1017.06 1017.18 1017.22 1017.30 1017.22 1017.34 1017.58 1017.74 1017.82 1017.90 1018.14 1018.38 1018.46 1018.58 1018.74 1018.90 1018.86 1018.90 1018.98 1019.06 1019.22 1019.34 1019.54 1019.74 1019.94 1020.06 1020.14 1020.38 1020.78 1020.74 1020.86 1020.94 1020.54 1020.50 1020.58 1020.62 1020.70 1020.82 1021.34 1021.94 1022.66 1023.62 1023.70 1022.98 1022.74 1022.74 1022.78 1022.74 1022.66 1022.78 1022.98 1023.22 1023.46 1023.58 1023.70 1023.86 1024.02
1016.62 1016.82 1016.94 1017.02 1017.14 1017.06 1017.18 1017.14 1017.30 1017.42 1017.46 1017.50 1017.62 1017.86 1017.94 1017.98 1017.98 1018.10 1018.22 1018.34 1018.38 1018.62 1018.74 1018.82 1018.86 1018.94 1019.14 1019.38 1019.50 1019.70 1019.86 1020.02 1020.06 1020.26 1020.50 1020.74 1020.78 1020.90 1020.82 1020.94 1020.90 1021.14 1021.14 1021.22 1021.38 1021.66 1022.42 1023.22 1023.78 1023.46 1023.42 1022.98 1022.78 1022.78 1022.78 1022.86 1023.06 1023.22 1023.42 1023.66 1023.78 1023.90 1024.10
1016.58 1016.78 1016.90 1017.14 1017.14 1017.10 1017.34 1017.38 1017.42 1017.50 1017.62 1017.82 1017.90 1017.98 1018.02 1018.06 1018.10 1018.06 1018.18 1018.34 1018.38 1018.50 1018.66 1018.78 1018.86 1019.14 1019.34 1019.34 1019.66 1019.62 1019.70 1019.82 1019.98 1020.14 1020.38 1020.62 1020.66 1020.70 1020.74 1020.86 1021.22 1021.42 1021.46 1021.58 1021.74 1021.98 1022.38 1022.34 1023.10 1023.54 1023.22 1023.22 1023.54 1023.30 1022.90 1023.10 1023.26 1023.38 1023.46 1023.62 1023.78 1023.98 1024.22
1016.50 1016.78 1017.14 1017.30 1017.26 1017.34 1017.46 1017.54 1017.46 1017.54 1017.74 1017.94 1018.02 1018.10 1018.10 1018.14 1018.18 1018.22 1018.30 1018.38 1018.46 1018.54 1018.66 1018.78 1018.90 1019.14 1019.74 1019.54 1019.74 1019.86 1019.98 1019.94 1020.06 1020.22 1020.50 1020.66 1020.66 1020.74 1020.82 1020.90 1021.06 1021.06 1021.18 1021.54 1021.86 1021.98 1022.22 1022.78 1023.06 1023.30 1023.18 1023.06 1023.14 1023.50 1023.26 1023.14 1023.26 1023.34 1023.46 1023.62 1023.86 1024.18 1024.38
1016.26 1016.70 1017.02 1017.30 1017.42 1017.50 1017.46 1017.50 1017.58 1017.70 1017.86 1017.94 1018.06 1018.18 1018.30 1018.26 1018.34 1018.46 1018.46 1018.50 1018.58 1018.62 1018.74 1018.82 1018.98 1019.10 1019.22 1019.30 1019.66 1019.90 1019.98 1020.06 1020.10 1020.34 1020.54 1020.70 1020.62 1020.70 1020.90 1020.90 1020.86 1020.86 1021.06 1021.18 1021.42 1021.74 1022.14 1022.50 1022.54 1023.06 1023.14 1023.14 1023.38 1023.38 1023.34 1023.46 1023.34 1023.50 1023.66 1023.86 1024.02 1024.22 1024.46
1016.02 1016.42 1016.86 1017.18 1017.34 1017.46 1017.42 1017.58 1017.74 1017.86 1017.98 1018.22 1018.30 1018.38 1018.38 1018.46 1018.58 1018.70 1018.70 1018.78 1018.82 1018.78 1018.86 1018.94 1019.06 1019.14 1019.30 1019.50 1019.74 1019.98 1020.06 1020.14 1020.18 1020.22 1020.46 1020.58 1020.54 1020.58 1020.78 1020.78 1020.74 1020.86 1021.02 1021.10 1021.26 1021.58 1021.86 1022.14 1022.34 1022.90 1022.94 1022.90 1023.50 1023.62 1023.54 1023.46 1023.86 1023.90 1023.86 1024.02 1024.10 1024.26 1024.38
1016.10 1016.38 1016.78 1017.10 1017.38 1017.42 1017.50 1017.58 1017.66 1017.78 1018.06 1018.30 1018.42 1018.46 1018.50 1018.54 1018.62 1018.78 1018.86 1018.94 1018.90 1018.90 1019.02 1019.18 1019.22 1019.34 1019.46 1019.70 1019.86 1020.06 1020.10 1020.06 1020.02 1020.10 1020.22 1020.38 1020.46 1020.50 1020.58 1020.82 1020.86 1020.94 1021.02 1021.02 1021.22 1021.42 1021.86 1022.14 1022.50 1022.58 1022.94 1023.14 1023.30 1023.58 1023.50 1023.62 1023.74 1024.10 1024.38 1024.18 1024.14 1024.26 1024.38
1016.10 1016.46 1016.78 1017.02 1017.30 1017.46 1017.58 1017.62 1017.74 1017.86 1018.06 1018.30 1018.42 1018.50 1018.54 1018.62 1018.82 1018.94 1019.06 1019.10 1019.06 1019.06 1019.18 1019.38 1019.54 1019.66 1019.74 1019.86 1019.98 1020.14 1020.14 1020.14 1020.14 1020.14 1020.22 1020.26 1020.42 1020.54 1020.66 1020.78 1020.90 1021.02 1021.02 1021.06 1021.22 1021.46 1021.58 1021.66 1021.90 1022.22 1022.46 1023.26 1023.66 1023.66 1023.78 1023.70 1023.86 1024.02 1024.38 1024.50 1024.30 1024.38 1024.42
1016.14 1016.46 1016.82 1017.02 1017.14 1017.26 1017.42 1017.62 1017.90 1017.98 1018.10 1018.22 1018.30 1018.42 1018.62 1018.74 1018.94 1019.10 1019.18 1019.26 1019.22 1019.22 1019.34 1019.54 1019.70 1019.86 1019.98 1020.14 1020.26 1020.30 1020.30 1020.14 1020.18 1020.22 1020.22 1020.22 1020.30 1020.38 1020.50 1020.58 1020.74 1020.90 1020.90 1020.98 1021.18 1021.30 1021.34 1021.38 1021.46 1021.82 1022.14 1022.38 1023.10 1024.14 1023.98 1024.18 1024.14 1024.42 1023.98 1024.30 1024.50 1024.34 1024.42
1016.30 1016.62 1016.86 1017.02 1017.10 1017.18 1017.46 1017.78 1017.98 1018.10 1018.10 1018.18 1018.42 1018.54 1018.78 1018.90 1019.02 1019.18 1019.34 1019.46 1019.46 1019.42 1019.50 1019.66 1019.82 1020.06 1020.22 1020.34 1020.38 1020.38 1020.38 1020.22 1020.06 1020.02 1019.98 1020.14 1020.34 1020.38 1020.38 1020.38 1020.46 1020.66 1020.78 1020.86 1020.94 1021.02 1021.18 1021.34 1021.54 1021.74 1021.86 1021.98 1022.74 1023.38 1024.10 1024.42 1024.50 1024.54 1024.42 1024.06 1024.62 1024.62 1024.42
1016.38 1016.66 1016.82 1017.02 1017.10 1017.34 1017.66 1017.90 1018.10 1018.22 1018.26 1018.30 1018.42 1018.62 1018.86 1019.06 1019.14 1019.22 1019.46 1019.50 1019.54 1019.58 1019.66 1019.78 1019.98 1020.22 1020.42 1020.54 1020.54 1020.46 1020.38 1020.22 1020.22 1020.14 1020.06 1020.06 1020.22 1020.18 1020.26 1020.38 1020.42 1020.58 1020.70 1020.82 1020.98 1021.02 1021.18 1021.38 1021.42 1021.58 1021.82 1021.90 1022.06 1022.82 1023.26 1024.10 1024.42 1024.22 1024.38 1024.18 1024.06 1024.50 1024.50
1016.42 1016.66 1016.78 1016.94 1017.14 1017.46 1017.74 1017.94 1018.10 1018.22 1018.26 1018.34 1018.54 1018.78 1018.98 1019.14 1019.26 1019.42 1019.50 1019.62 1019.66 1019.70 1019.74 1019.90 1020.06 1020.26 1020.42 1020.62 1020.66 1020.66 1020.54 1020.42 1020.38 1020.34 1020.22 1020.10 1020.14 1020.14 1020.30 1020.46 1020.46 1020.54 1020.54 1020.66 1020.78 1020.94 1021.02 1021.02 1021.26 1021.46 1021.82 1021.90 1022.14 1022.30 1022.86 1023.38 1024.26 1024.30 1024.10 1024.30 1024.18 1024.06 1024.26
1016.46 1016.62 1016.74 1016.94 1017.26 1017.50 1017.70 1017.90 1018.10 1018.26 1018.34 1018.42 1018.62 1018.82 1019.02 1019.22 1019.34 1019.50 1019.58 1019.62 1019.66 1019.66 1019.82 1019.98 1020.10 1020.26 1020.46 1020.70 1020.86 1020.82 1020.78 1020.66 1020.58 1020.50 1020.34 1020.14 1020.10 1020.14 1020.34 1020.58 1020.66 1020.66 1020.62 1020.58 1020.70 1020.86 1021.02 1021.14 1021.10 1021.42 1021.78 1021.98 1022.34 1022.62 1022.74 1023.18 1023.78 1024.34 1023.98 1023.98 1024.06 1024.10 1024.06
1016.58 1016.62 1016.78 1016.98 1017.26 1017.50 1017.70 1017.90 1018.06 1018.22 1018.42 1018.54 1018.62 1018.90 1019.06 1019.22 1019.34 1019.46 1019.58 1019.66 1019.70 1019.78 1019.86 1019.98 1020.06 1020.30 1020.50 1020.70 1020.86 1020.90 1020.90 1020.82 1020.74 1020.62 1020.50 1020.46 1020.30 1020.38 1020.54 1020.70 1020.74 1020.82 1020.74 1020.74 1020.82 1020.94 1021.10 1021.26 1021.46 1021.78 1022.02 1022.22 1022.54 1022.62 1022.70 1023.26 1023.90 1024.34 1024.14 1023.98 1023.90 1023.98 1024.06
1016.66 1016.70 1016.90 1017.18 1017.42 1017.58 1017.74 1017.94 1018.06 1018.22 1018.50 1018.54 1018.58 1018.82 1018.98 1019.14 1019.30 1019.46 1019.58 1019.74 1019.78 1019.82 1019.86 1019.90 1020.06 1020.22 1020.46 1020.66 1020.90 1021.02 1021.10 1021.02 1020.98 1020.94 1020.78 1020.70 1020.62 1020.62 1020.70 1020.82 1020.90 1020.86 1020.78 1020.90 1020.98 1021.06 1021.22 1021.46 1021.66 1022.02 1022.26 1022.38 1022.62 1022.86 1022.74 1023.26 1023.86 1024.02 1024.34 1024.14 1024.10 1023.90 1023.78
1016.90 1016.98 1017.06 1017.30 1017.54 1017.66 1017.78 1017.94 1018.02 1018.30 1018.50 1018.54 1018.54 1018.66 1018.86 1019.06 1019.26 1019.42 1019.62 1019.70 1019.78 1019.86 1019.86 1019.98 1020.06 1020.10 1020.30 1020.58 1020.86 1021.06 1021.10 1021.14 1021.14 1021.06 1020.98 1020.86 1020.78 1020.70 1020.78 1020.90 1021.02 1020.94 1020.98 1021.18 1021.38 1021.42 1021.46 1021.74 1021.94 1022.14 1022.42 1022.46 1022.66 1022.86 1022.90 1022.94 1023.46 1023.98 1024.18 1024.26 1024.06 1023.94 1023.82
1017.06 1017.18 1017.30 1017.46 1017.66 1017.66 1017.78 1017.86 1017.98 1018.22 1018.42 1018.42 1018.50 1018.62 1018.70 1018.90 1019.14 1019.38 1019.54 1019.66 1019.74 1019.86 1019.98 1020.06 1020.02 1020.02 1020.22 1020.46 1020.66 1020.82 1020.90 1020.94 1021.02 1020.98 1020.98 1020.94 1020.86 1020.82 1020.98 1021.06 1021.10 1021.10 1021.22 1021.38 1021.58 1021.66 1021.74 1021.82 1021.82 1021.98 1022.22 1022.46 1022.54 1022.74 1022.94 1023.06 1023.02 1023.46 1024.02 1024.18 1024.18 1023.82 1023.66
1017.46 1017.54 1017.66 1017.74 1017.78 1017.74 1017.78 1017.90 1018.02 1018.18 1018.34 1018.42 1018.46 1018.62 1018.70 1018.74 1019.06 1019.26 1019.46 1019.54 1019.66 1019.78 1019.86 1019.90 1020.02 1020.10 1020.22 1020.34 1020.42 1020.50 1020.62 1020.70 1020.74 1020.78 1020.78 1020.82 1020.86 1020.94 1021.06 1021.14 1021.14 1021.10 1021.18 1021.34 1021.50 1021.58 1021.70 1021.82 1021.98 1022.06 1022.14 1022.30 1022.46 1022.62 1022.78 1022.90 1023.06 1023.18 1023.70 1024.02 1024.10 1023.70 1023.62
1017.82 1017.82 1017.82 1017.82 1017.82 1017.78 1017.82 1017.90 1018.02 1018.14 1018.26 1018.38 1018.50 1018.58 1018.66 1018.74 1018.86 1019.06 1019.14 1019.34 1019.46 1019.62 1019.70 1019.82 1019.94 1020.06 1020.14 1020.26 1020.34 1020.42 1020.50 1020.58 1020.62 1020.66 1020.62 1020.66 1020.74 1020.86 1020.98 1021.06 1021.02 1020.98 1021.06 1021.34 1021.58 1021.70 1021.82 1022.02 1022.14 1022.26 1022.26 1022.30 1022.42 1022.54 1022.78 1023.02 1023.18 1023.22 1023.38 1023.70 1023.78 1023.78 1023.86
1019.14 1018.70 1017.82 1017.66 1017.70 1017.74 1017.82 1017.90 1017.98 1018.14 1018.18 1018.34 1018.50 1018.62 1018.58 1018.62 1018.70 1018.78 1018.90 1019.10 1019.26 1019.42 1019.54 1019.74 1019.82 1019.90 1019.98 1020.14 1020.26 1020.46 1020.54 1020.62 1020.70 1020.70 1020.66 1020.62 1020.62 1020.74 1020.82 1020.82 1020.86 1020.98 1021.14 1021.38 1021.58 1021.70 1021.86 1022.02 1022.10 1022.26 1022.34 1022.42 1022.46 1022.58 1022.82 1022.86 1022.94 1023.18 1023.22 1023.46 1023.62 1023.54 1023.46
1018.50 1018.42 1018.58 1018.14 1017.66 1017.74 1017.86 1017.90 1017.94 1018.02 1018.14 1018.30 1018.42 1018.50 1018.58 1018.58 1018.62 1018.66 1018.66 1018.86 1019.06 1019.18 1019.38 1019.62 1019.74 1019.78 1019.86 1020.02 1020.18 1020.42 1020.54 1020.62 1020.66 1020.62 1020.58 1020.62 1020.62 1020.74 1020.82 1020.82 1020.94 1021.10 1021.22 1021.34 1021.42 1021.54 1021.58 1021.82 1021.94 1022.18 1022.30 1022.30 1022.46 1022.62 1022.82 1022.86 1022.94 1023.06 1023.26 1023.38 1023.50 1023.50 1023.54
1018.42 1018.78 1018.86 1018.06 1017.78 1017.78 1017.86 1017.90 1017.98 1018.06 1018.14 1018.22 1018.30 1018.34 1018.42 1018.42 1018.54 1018.58 1018.66 1018.78 1018.94 1019.06 1019.18 1019.34 1019.54 1019.70 1019.82 1020.02 1020.10 1020.30 1020.38 1020.46 1020.50 1020.58 1020.54 1020.58 1020.62 1020.66 1020.90 1021.02 1021.06 1021.10 1021.18 1021.30 1021.42 1021.50 1021.58 1021.66 1021.86 1022.18 1022.30 1022.22 1022.38 1022.58 1022.86 1023.02 1023.10 1023.22 1023.38 1023.50 1023.62 1023.86 1023.74
1018.38 1018.58 1018.62 1018.06 1017.98 1017.98 1018.06 1018.06 1018.06 1018.14 1018.30 1018.42 1018.34 1018.34 1018.38 1018.38 1018.46 1018.54 1018.62 1018.94 1019.06 1019.10 1019.10 1019.18 1019.30 1019.34 1019.46 1019.74 1019.98 1020.14 1020.30 1020.30 1020.34 1020.42 1020.50 1020.62 1020.66 1020.70 1020.86 1021.02 1021.02 1020.98 1021.14 1021.34 1021.50 1021.62 1021.70 1021.78 1021.86 1021.94 1022.14 1022.18 1022.22 1022.38 1022.54 1022.78 1023.02 1023.10 1023.26 1023.50 1023.66 1023.62 1023.86
1018.54 1018.58 1018.26 1018.30 1018.30 1018.42 1018.42 1018.38 1018.34 1018.34 1018.46 1018.54 1018.54 1018.50 1018.54 1018.62 1018.74 1018.74 1018.82 1018.94 1019.10 1019.22 1019.34 1019.38 1019.42 1019.42 1019.54 1019.62 1019.66 1019.82 1020.06 1020.22 1020.34 1020.42 1020.50 1020.62 1020.86 1020.94 1021.06 1021.02 1021.02 1021.10 1021.18 1021.34 1021.42 1021.50 1021.70 1021.90 1022.10 1022.26 1022.38 1022.38 1022.30 1022.22 1022.38 1022.70 1022.86 1022.82 1023.02 1023.26 1023.54 1023.66 1023.86
1018.18 1018.30 1018.42 1018.50 1018.46 1018.50 1018.66 1018.46 1018.46 1018.46 1018.54 1018.70 1018.70 1018.66 1018.74 1018.86 1018.94 1018.98 1019.10 1019.14 1019.10 1019.14 1019.18 1019.30 1019.34 1019.50 1019.50 1019.46 1019.58 1019.66 1019.74 1019.90 1020.14 1020.26 1020.34 1020.58 1020.90 1021.02 1021.02 1020.94 1020.98 1021.06 1021.18 1021.30 1021.50 1021.74 1021.98 1022.10 1022.22 1022.38 1022.46 1022.42 1022.38 1022.38 1022.26 1022.26 1022.66 1022.90 1023.02 1023.18 1023.38 1023.62 1023.90
1018.66 1018.46 1018.38 1018.46 1018.62 1018.70 1019.30 1018.94 1018.58 1018.58 1018.62 1018.82 1018.86 1018.86 1018.94 1018.90 1019.02 1019.14 1019.22 1019.34 1019.30 1019.18 1019.10 1019.06 1019.18 1019.18 1019.34 1019.46 1019.50 1019.62 1019.82 1019.78 1019.74 1020.06 1020.54 1020.82 1020.94 1020.94 1020.98 1021.10 1021.22 1021.14 1021.10 1021.18 1021.30 1021.54 1021.78 1022.14 1022.26 1022.26 1022.38 1022.50 1022.58 1022.50 1022.42 1022.38 1022.34 1022.46 1022.82 1023.02 1023.30 1023.70 1023.98
1019.34 1019.30 1019.34 1019.18 1019.02 1019.06 1019.26 1019.10 1018.78 1018.58 1018.58 1018.70 1018.86 1019.06 1019.10 1019.10 1019.06 1019.22 1019.34 1019.38 1019.34 1019.22 1019.10 1018.98 1019.02 1019.06 1019.14 1019.30 1019.46 1019.42 1019.50 1019.74 1019.86 1020.06 1020.14 1020.38 1020.50 1020.58 1020.66 1020.82 1020.90 1020.98 1021.02 1021.10 1021.22 1021.34 1021.54 1021.78 1022.10 1022.30 1022.42 1022.50 1022.62 1022.78 1022.74 1022.66 1022.70 1022.78 1022.78 1022.90 1023.18 1023.50 1024.02
1018.98 1019.06 1019.10 1019.18 1019.22 1019.06 1019.02 1018.70 1018.54 1018.50 1018.50 1018.62 1018.74 1018.90 1019.06 1019.14 1019.14 1019.18 1019.34 1019.38 1019.38 1019.22 1019.02 1018.90 1018.86 1018.90 1019.06 1019.14 1019.30 1019.34 1019.34 1019.62 1019.90 1019.98 1019.94 1019.90 1020.06 1020.10 1020.22 1020.38 1020.42 1020.50 1020.78 1021.14 1021.18 1021.14 1021.38 1021.74 1022.06 1022.26 1022.42 1022.58 1022.70 1022.86 1022.90 1022.86 1022.82 1022.86 1022.94 1023.02 1023.26 1023.82 1024.22
1019.06 1018.94 1018.94 1018.94 1019.02 1019.14 1019.10 1019.06 1018.90 1018.70 1018.50 1018.54 1018.66 1018.78 1018.94 1019.02 1019.10 1019.18 1019.30 1019.38 1019.38 1019.22 1018.98 1018.78 1018.70 1018.70 1018.78 1019.02 1019.34 1019.26 1019.30 1019.46 1019.74 1019.86 1019.98 1019.82 1019.70 1019.70 1019.90 1020.14 1020.34 1020.42 1020.42 1020.66 1020.82 1020.90 1021.06 1021.54 1021.86 1022.18 1022.46 1022.70 1022.90 1023.18 1023.30 1023.58 1023.50 1023.30 1023.22 1023.42 1023.62 1023.82 1024.02
1019.38 1019.26 1019.14 1019.14 1019.18 1019.10 1019.06 1018.98 1018.94 1018.82 1018.82 1018.74 1018.62 1018.58 1018.66 1018.78 1018.82 1018.94 1019.06 1019.14 1019.18 1019.10 1018.90 1018.70 1018.66 1018.58 1018.54 1018.70 1019.02 1019.10 1019.30 1019.46 1019.62 1019.70 1019.82 1019.74 1019.66 1019.58 1019.70 1019.78 1020.02 1020.30 1020.34 1020.34 1020.50 1020.78 1021.02 1021.30 1021.74 1022.14 1022.38 1022.58 1022.90 1023.10 1023.42 1023.62 1023.70 1023.66 1023.58 1023.62 1023.74 1023.94 1024.10
1019.94 1019.78 1019.62 1019.54 1019.46 1019.34 1019.26 1019.06 1018.90 1018.94 1018.98 1018.90 1018.82 1018.78 1018.58 1018.54 1018.58 1018.66 1018.74 1018.82 1018.82 1018.86 1018.66 1018.46 1018.42 1018.38 1018.38 1018.46 1018.66 1018.70 1018.94 1019.22 1019.38 1019.46 1019.58 1019.58 1019.50 1019.42 1019.30 1019.34 1019.58 1019.82 1019.94 1020.06 1020.30 1020.70 1020.98 1021.14 1021.50 1021.86 1022.14 1022.58 1023.10 1023.38 1023.66 1023.74 1023.78 1023.98 1024.06 1024.02 1024.06 1024.14 1024.14
1020.30 1020.22 1020.14 1020.02 1019.86 1019.70 1019.54 1019.42 1019.18 1018.98 1018.86 1018.82 1018.78 1018.70 1018.74 1018.74 1018.58 1018.46 1018.38 1018.30 1018.34 1018.42 1018.42 1018.26 1018.14 1018.14 1018.14 1018.30 1018.66 1018.74 1018.78 1018.86 1019.02 1019.14 1019.18 1019.30 1019.38 1019.34 1019.34 1019.26 1019.30 1019.54 1019.74 1019.90 1020.30 1020.62 1020.78 1020.82 1021.02 1021.38 1021.66 1022.22 1022.70 1022.94 1022.98 1023.26 1023.26 1023.46 1023.62 1023.58 1023.82 1023.90 1023.94
1020.50 1020.46 1020.30 1020.14 1019.98 1019.90 1019.70 1019.46 1019.30 1019.14 1018.98 1018.90 1018.82 1018.70 1018.58 1018.54 1018.58 1018.50 1018.34 1018.26 1018.14 1018.06 1018.06 1017.94 1017.82 1017.78 1017.82 1018.02 1018.34 1018.58 1018.70 1018.66 1018.58 1018.66 1018.78 1018.94 1019.26 1019.38 1019.26 1019.22 1019.30 1019.54 1019.70 1019.90 1020.18 1020.46 1020.62 1020.54 1020.58 1021.02 1021.42 1021.86 1022.26 1022.02 1022.62 1022.98 1023.02 1022.94 1023.10 1023.26 1023.46 1023.54 1023.58
1020.62 1020.50 1020.42 1020.30 1020.22 1020.14 1020.02 1019.86 1019.62 1019.42 1019.22 1019.10 1019.02 1018.90 1018.74 1018.54 1018.38 1018.22 1018.14 1018.02 1017.86 1017.78 1017.74 1017.66 1017.54 1017.50 1017.46 1017.50 1018.06 1018.54 1018.46 1018.30 1018.14 1018.26 1018.42 1018.70 1018.82 1019.02 1019.34 1019.46 1019.46 1019.34 1019.42 1019.54 1019.78 1020.18 1020.42 1020.42 1020.54 1020.78 1021.10 1021.42 1021.42 1021.62 1022.38 1022.66 1022.82 1022.86 1023.06 1023.26 1023.34 1023.46 1023.62
1020.82 1020.74 1020.54 1020.42 1020.34 1020.26 1020.14 1020.02 1019.90 1019.74 1019.54 1019.34 1019.14 1018.98 1018.86 1018.66 1018.46 1018.22 1017.86 1017.70 1017.66 1017.46 1017.30 1017.26 1017.22 1017.22 1017.34 1017.50 1018.02 1018.38 1018.26 1017.94 1017.82 1017.98 1018.26 1018.30 1018.50 1018.82 1018.94 1019.26 1019.42 1019.34 1019.14 1019.38 1019.66 1019.86 1020.14 1020.30 1020.46 1020.62 1020.90 1021.14 1021.46 1021.86 1022.18 1022.42 1022.70 1022.90 1023.06 1023.18 1023.34 1023.46 1023.62
1020.90 1020.78 1020.66 1020.58 1020.54 1020.50 1020.46 1020.30 1020.22 1020.14 1019.98 1019.74 1019.42 1019.06 1018.74 1018.50 1018.34 1018.06 1017.82 1017.54 1017.34 1017.26 1017.18 1017.06 1016.98 1016.98 1017.14 1017.30 1017.54 1018.02 1018.10 1017.94 1017.82 1017.74 1017.82 1018.06 1018.38 1018.74 1019.22 1019.54 1019.66 1019.82 1019.70 1019.74 1019.98 1020.26 1020.58 1020.94 1020.94 1020.98 1021.22 1021.30 1021.50 1021.74 1022.06 1022.38 1022.54 1022.78 1022.98 1023.22 1023.38 1023.46 1023.70
1021.22 1021.10 1020.98 1020.90 1020.86 1020.82 1020.70 1020.58 1020.42 1020.30 1020.10 1019.90 1019.62 1019.34 1019.02 1018.70 1018.42 1018.14 1017.86 1017.50 1017.14 1016.98 1016.90 1016.78 1016.70 1016.62 1016.78 1017.18 1017.58 1017.90 1018.34 1018.62 1018.58 1018.18 1017.86 1017.86 1018.22 1018.70 1019.58 1020.06 1020.26 1020.06 1019.82 1019.90 1020.22 1020.58 1020.78 1020.74 1020.90 1021.18 1021.22 1021.34 1021.58 1021.78 1022.02 1022.22 1022.46 1022.74 1023.06 1023.22 1023.30 1023.46 1023.94
Wind_Speed
5 5 5 4 4 5 6 5 5 4 4 4 4 4 3 3 4 5 5 4 4 3 3 4 4 3 2 3 6 3 5 5 5 6 5 3 4 1 2 3 4 4 3 6 5 6 7 7 3 3 2 2 2 1 2 3 6 8 8 8 8 7 6
5 6 5 5 5 5 6 3 5 5 5 4 4 4 2 3 4 4 4 3 3 5 3 3 2 2 1 2 3 2 4 4 4 4 5 5 3 4 2 2 5 4 5 4 5 5 5 8 4 4 4 2 3 3 5 5 6 7 8 7 7 7 7
5 6 6 5 4 4 4 4 5 5 5 6 5 4 5 5 3 4 5 4 4 6 4 3 6 5 3 3 1 2 2 3 4 6 6 5 4 4 3 4 3 3 4 4 4 5 4 3 9 6 4 8 6 2 4 7 7 6 7 7 7 8 7
7 8 7 5 4 4 5 4 5 5 5 4 5 4 4 4 4 3 4 4 4 3 3 4 4 7 5 4 6 4 3 4 3 4 5 5 5 5 4 5 5 6 6 4 6 4 4 4 5 5 4 4 7 6 2 5 7 6 6 6 7 7 7
9 8 8 6 4 4 4 4 4 6 4 4 4 5 4 4 4 4 4 5 5 4 4 4 4 3 3 4 6 5 4 3 3 5 6 6 5 5 5 5 5 4 3 5 5 6 8 7 7 6 6 4 4 2 1 2 5 7 7 6 6 6 6
10 9 8 6 4 4 4 4 6 6 5 5 5 4 1 1 2 3 4 5 5 5 4 5 4 4 4 4 4 4 5 4 5 6 6 5 6 6 6 5 6 5 5 4 5 8 8 6 6 7 5 5 5 3 2 3 2 3 5 6 6 6 6
9 8 7 7 5 5 4 5 6 6 6 6 5 4 2 5 4 3 3 4 3 4 4 4 4 4 4 4 4 5 4 4 4 4 6 5 4 4 4 5 4 5 5 5 6 7 6 6 6 8 7 3 3 5 2 2 4 6 3 4 5 5 5
8 7 7 6 6 5 4 4 4 5 7 6 6 5 5 4 4 5 5 4 4 4 4 5 5 4 4 3 3 3 3 3 3 3 4 5 5 5 4 4 4 4 5 5 5 5 5 6 6 6 7 8 3 3 3 2 3 4 6 2 4 5 5
6 6 5 5 5 5 4 5 5 6 6 6 5 5 5 6 6 5 4 3 3 3 4 4 5 5 4 4 3 3 3 2 4 4 4 5 5 5 4 4 4 4 4 5 4 5 6 6 6 5 5 8 9 5 2 3 3 2 4 4 2 4 6
7 6 6 5 6 5 5 6 7 6 6 6 5 5 5 4 5 5 5 4 4 4 5 4 5 5 4 4 3 3 3 2 3 4 4 6 5 6 5 5 4 5 5 4 4 4 4 4 3 5 5 9 7 8 5 3 3 4 1 3 3 1 3
6 6 6 6 5 7 7 7 6 6 6 6 6 4 5 6 5 5 4 4 3 3 4 5 5 4 4 3 3 3 2 3 3 3 4 6 6 6 6 6 5 5 3 4 3 4 6 7 7 6 5 5 8 8 6 6 2 0 3 0 1 3 2
5 5 6 6 6 7 8 7 7 7 6 6 7 6 6 5 5 4 4 4 4 5 5 5 6 5 4 3 2 3 3 4 4 4 3 4 4 7 6 5 4 5 4 5 7 7 6 7 6 6 5 6 7 8 8 7 6 0 2 2 0 3 4
5 6 6 7 6 7 7 7 7 6 7 6 6 6 5 5 5 5 4 4 4 4 5 5 6 5 4 2 2 3 2 3 3 3 4 4 5 5 5 5 5 5 4 5 7 7 7 6 7 8 7 7 7 6 7 6 7 4 1 4 4 4 5
5 5 6 6 6 6 5 7 7 6 5 6 7 6 6 6 6 5 5 4 4 4 5 5 5 5 4 4 4 4 2 3 3 3 4 5 4 4 4 4 4 3 3 5 4 5 6 6 7 8 6 7 7 6 8 6 7 5 1 1 4 4 5
4 5 6 5 6 5 5 6 6 6 6 7 6 7 7 6 5 6 5 5 4 4 5 5 4 6 6 5 5 3 3 3 2 2 3 5 4 4 5 5 5 4 4 6 5 5 5 7 7 8 7 6 6 4 4 5 4 5 5 1 1 1 3
3 4 5 4 5 5 5 5 6 6 5 6 5 6 6 6 6 5 5 5 5 5 4 4 5 6 6 5 5 4 5 4 4 4 5 4 4 4 5 5 4 4 5 7 5 5 7 6 5 7 6 6 6 5 4 7 6 4 7 4 4 3 3
3 4 4 4 5 5 5 5 5 5 5 5 5 4 6 6 6 6 6 6 6 5 4 5 5 5 4 5 7 7 5 5 5 5 5 5 5 5 5 5 4 5 5 6 5 5 4 4 5 6 6 5 6 7 5 4 5 6 4 6 3 6 4
3 2 2 3 5 5 5 5 4 4 4 5 4 5 5 5 5 6 7 6 6 6 6 6 6 4 4 4 6 6 5 5 5 6 6 6 6 5 4 4 4 4 4 5 4 5 5 5 4 4 4 5 6 5 5 5 4 4 5 5 5 5 3
3 2 2 3 5 5 5 5 4 4 5 5 3 5 6 4 5 6 6 6 6 6 6 6 6 5 5 5 5 5 4 4 4 6 7 7 7 6 5 5 4 4 4 5 4 4 5 5 4 4 4 4 4 4 4 4 5 4 6 6 6 5 1
3 8 1 4 4 4 5 5 4 4 3 4 4 4 5 4 4 6 6 6 6 7 6 6 7 7 6 5 6 5 4 4 4 5 5 6 6 6 6 5 5 4 4 4 5 6 6 5 5 5 4 3 2 4 4 2 3 3 3 4 2 4 4
2 4 3 2 3 3 4 4 5 4 4 4 4 4 3 4 3 5 6 6 7 7 6 6 6 7 6 7 7 5 5 4 4 5 5 5 6 5 6 5 4 4 5 5 6 5 6 6 5 5 2 3 4 4 3 2 3 3 2 2 1 1 1
2 3 2 2 2 3 2 3 2 3 3 5 4 3 2 2 1 3 2 4 6 6 7 6 6 6 6 6 6 6 7 6 5 5 5 5 5 5 4 4 4 4 5 7 8 6 5 5 6 6 2 3 4 5 4 4 3 4 3 5 5 3 4
2 0 2 3 3 2 3 2 2 2 3 1 2 3 4 4 3 3 1 3 1 2 4 3 3 13 11 8 6 5 5 6 5 5 6 5 5 5 6 4 4 9 11 11 11 10 10 8 6 6 5 4 5 5 5 4 3 4 4 4 3 3 5
0 2 2 3 4 2 1 2 2 3 3 3 3 3 4 3 3 3 4 4 4 3 1 2 2 5 5 6 7 7 7 6 4 4 5 4 4 4 4 4 4 7 9 9 9 12 11 10 9 9 8 6 2 5 6 5 3 3 3 3 2 5 6
1 0 1 2 2 2 2 1 1 0 2 3 3 3 4 3 3 3 4 4 3 3 3 3 5 4 5 6 4 5 6 7 6 5 5 4 5 4 5 6 4 5 5 6 7 7 8 9 10 9 8 8 9 7 3 6 5 3 3 4 4 4 6
4 1 0 1 3 2 5 1 1 0 0 2 2 1 1 2 2 2 3 3 2 3 3 6 5 6 4 4 6 4 0 3 8 4 7 8 6 5 5 5 4 4 6 9 7 7 7 6 7 10 10 9 6 8 9 8 6 7 6 6 5 3 3
4 2 3 6 7 9 8 5 3 2 0 1 1 1 1 1 1 2 3 3 3 3 4 6 8 7 6 5 5 4 2 1 3 8 9 9 7 6 5 6 5 5 4 4 5 7 7 7 6 6 5 4 4 3 5 7 7 5 4 5 6 4 1
9 6 5 4 3 2 1 3 5 5 4 3 2 2 3 3 3 2 3 3 4 5 6 9 9 9 8 7 4 4 2 3 6 5 6 8 8 8 7 6 6 6 5 4 6 7 7 7 6 5 4 4 3 3 3 3 3 3 4 5 7 7 6
9 9 9 7 6 5 5 4 3 1 3 4 4 3 3 4 5 5 4 4 5 6 7 11 12 11 9 7 5 3 3 3 6 6 5 6 7 8 7 7 6 7 6 7 9 13 10 8 7 6 5 4 4 3 3 2 3 2 6 7 7 7 6
9 9 8 7 7 7 6 7 5 3 2 3 3 4 5 5 6 6 6 6 6 7 7 10 12 12 11 8 5 4 3 3 4 6 7 7 6 6 6 6 6 6 6 7 9 13 13 12 7 7 6 5 4 4 4 2 6 8 10 11 11 11 11
7 8 7 8 8 7 6 6 6 4 4 3 3 3 5 5 4 5 7 7 8 8 8 10 13 13 13 12 7 5 5 5 6 6 6 7 6 6 7 10 5 6 7 7 11 14 14 12 8 8 7 7 6 4 3 3 4 4 6 9 9 8 8
7 7 7 7 6 7 7 7 6 7 7 6 5 4 2 4 6 6 7 8 11 11 8 10 14 15 15 13 8 5 6 5 6 6 6 7 7 6 6 7 11 8 7 7 12 14 14 11 8 8 9 9 9 8 7 7 7 5 3 4 3 3 2
8 8 9 8 8 7 6 7 8 8 8 7 8 8 8 5 4 6 7 7 7 9 9 9 11 16 15 14 13 8 5 6 8 8 7 7 7 5 7 7 7 7 8 7 11 13 14 11 7 7 7 8 8 8 6 5 4 6 4 4 4 2 1
9 9 8 9 8 8 8 8 8 8 7 8 7 8 8 7 7 6 5 7 9 9 9 9 11 15 16 15 12 10 7 8 8 7 7 7 7 8 6 5 3 9 13 12 13 14 12 8 7 7 8 8 8 7 9 6 5 7 5 4 3 2 1
5 6 7 8 9 9 8 8 8 8 8 7 8 8 6 7 7 8 8 6 6 9 10 14 10 13 14 12 10 13 9 9 7 7 7 7 7 7 7 6 6 9 14 14 13 13 12 11 10 7 6 9 13 16 9 7 6 5 5 3 4 4 2
6 5 6 6 6 7 7 8 8 7 8 8 8 8 7 7 7 8 8 8 7 7 8 10 14 10 12 13 13 12 14 10 6 8 8 7 6 6 5 6 5 8 10 13 13 13 12 12 9 8 12 15 15 15 11 7 6 6 5 4 6 4 2
8 7 7 7 7 7 8 7 7 6 7 7 7 8 7 7 7 7 8 8 9 7 7 8 12 15 10 12 11 12 11 10 5 2 4 7 7 8 7 6 6 11 14 15 15 14 14 12 10 12 13 14 13 10 7 7 7 6 5 5 4 2 5
Wind_Direction
121 129 120 129 122 124 112 117 118 110 95 98 102 110 129 131 137 161 182 185 179 177 181 182 189 183 157 149 146 175 155 163 151 145 151 163 163 231 346 39 52 57 69 91 107 143 128 123 92 35 61 121 125 195 143 120 112 108 101 93 94 88 86
111 118 116 116 117 122 122 114 85 89 77 68 89 111 126 108 109 95 101 100 153 168 158 196 182 147 133 167 172 148 154 161 147 138 141 170 147 175 119 49 66 66 66 77 100 101 126 124 99 116 119 76 86 62 91 105 105 106 108 107 100 98 90
138 117 112 114 117 121 113 112 114 97 84 71 61 65 84 71 65 82 71 70 81 120 138 125 95 90 86 137 195 114 162 146 126 139 152 152 148 173 159 145 117 101 72 64 72 101 60 48 136 143 135 119 105 46 76 95 103 103 108 107 99 93 86
134 122 113 117 124 91 124 132 124 119 103 99 65 43 63 75 61 54 73 73 81 99 111 111 109 119 159 160 140 167 166 144 148 132 124 136 143 153 150 144 152 158 162 147 152 135 128 126 113 122 128 133 134 120 116 93 107 109 103 99 101 94 100
135 133 134 148 156 145 145 140 122 111 120 98 84 79 59 69 72 70 72 63 52 50 58 103 109 113 117 98 116 129 120 132 131 125 132 144 153 163 154 150 157 155 111 122 146 124 125 142 138 142 137 126 95 100 115 79 108 121 117 112 112 113 114
137 138 141 148 169 158 161 137 133 138 130 100 104 89 52 37 76 78 72 69 54 50 55 88 104 106 98 99 114 118 130 136 151 148 150 160 161 163 156 158 157 152 147 143 125 134 140 150 144 138 147 136 140 148 133 136 101 58 99 115 120 120 122
135 138 145 153 169 171 160 160 148 152 135 133 130 136 129 98 95 97 77 65 58 46 48 76 95 87 87 102 115 126 140 156 159 158 149 154 164 159 136 141 164 154 148 157 153 142 141 139 149 151 148 127 116 142 126 98 118 104 41 89 116 127 125
137 138 148 155 160 159 165 159 149 133 123 130 123 125 113 84 80 84 91 85 72 56 55 69 84 80 79 83 100 118 116 132 135 132 148 157 167 164 156 152 146 128 153 164 145 138 139 149 157 165 145 132 107 100 127 96 100 105 138 66 117 119 138
130 130 134 142 149 150 152 125 130 124 125 124 120 106 97 105 101 103 89 82 50 26 45 85 90 84 84 84 79 99 125 144 131 131 156 143 150 159 158 146 131 150 147 153 154 158 153 169 164 161 153 139 144 148 103 113 112 117 145 117 34 116 139
133 140 150 145 144 136 115 119 122 129 123 119 117 116 121 106 103 97 95 79 79 82 83 86 87 82 81 89 100 95 101 95 93 89 80 87 105 116 111 122 135 139 158 166 170 166 158 159 145 139 180 152 155 137 146 126 152 130 143 122 128 245 156
140 144 137 136 127 111 111 118 121 121 129 130 124 118 109 111 112 105 99 103 77 50 68 82 85 76 74 82 104 103 121 94 71 49 73 96 98 100 101 97 106 100 110 108 125 125 122 135 117 121 154 164 147 147 148 132 126 149 154 300 111 154 193
134 139 132 127 120 119 128 132 135 138 130 123 118 121 119 117 116 122 124 115 106 105 93 89 92 93 98 80 43 68 66 84 90 95 90 95 97 96 94 86 78 84 91 92 93 96 97 93 100 100 91 118 135 137 136 130 112 296 130 127 24 144 151
132 138 136 128 128 135 140 138 139 137 140 130 131 132 131 131 136 136 136 133 120 108 95 111 118 119 110 91 88 84 79 88 94 104 92 96 99 92 93 89 89 109 98 84 83 89 90 87 89 82 78 87 100 107 111 103 112 134 212 152 150 157 161
133 136 130 131 137 145 138 136 143 146 134 140 143 141 143 147 147 150 146 141 143 136 126 134 135 131 124 133 133 139 136 119 129 127 99 87 92 91 83 86 82 68 66 76 80 81 86 90 78 78 79 86 95 113 114 113 118 132 51 134 141 161 153
133 135 134 130 138 145 138 141 149 140 146 159 153 151 155 157 154 155 150 155 153 150 144 150 135 130 145 149 160 158 171 176 158 111 107 119 95 93 97 88 73 63 61 71 60 65 79 77 87 91 94 100 102 103 117 105 131 131 152 120 85 251 177
134 141 137 121 145 144 142 141 143 144 152 170 160 152 158 157 164 156 147 154 151 151 161 134 135 134 142 138 150 160 172 151 138 139 127 119 115 102 82 83 79 73 65 71 73 88 93 98 102 104 112 110 110 124 140 137 135 138 152 185 193 176 207
144 154 152 141 149 148 144 145 144 142 158 165 164 148 154 155 161 147 154 156 157 160 145 135 133 137 135 132 137 145 147 144 150 140 128 127 115 100 104 87 84 89 93 94 93 87 82 103 113 124 117 119 112 122 144 153 143 136 168 146 220 177 218
102 89 154 131 154 145 145 143 143 147 149 166 170 138 159 154 146 148 154 162 156 151 150 142 139 148 135 137 140 144 150 154 151 147 142 135 128 124 118 124 132 101 102 96 79 90 80 73 76 101 112 113 118 124 113 131 146 130 133 156 197 229 196
58 79 135 142 148 146 146 141 152 149 151 170 161 151 156 153 149 157 160 162 157 157 154 154 156 164 157 148 148 154 165 164 154 152 151 144 142 143 146 155 157 141 127 116 111 100 91 88 74 80 105 108 116 113 102 111 118 133 145 170 176 213 253
351 305 274 125 114 128 147 152 147 154 154 138 133 148 170 151 167 156 168 158 159 161 162 164 167 166 167 160 159 159 173 160 141 151 152 149 151 151 156 161 166 144 131 115 116 120 113 100 97 88 101 114 113 103 103 94 97 105 126 142 182 206 200
220 268 348 335 103 104 110 130 158 154 154 146 144 132 152 146 189 150 185 162 172 163 163 165 174 176 173 169 164 168 177 167 160 147 146 145 151 151 159 164 156 145 136 141 133 135 125 131 123 102 82 111 120 97 84 86 74 87 96 77 86 224 267
130 9 252 206 74 78 88 92 91 104 164 169 156 164 161 148 176 164 166 166 172 170 167 173 175 175 174 172 172 169 177 182 169 164 164 157 158 143 131 130 132 144 145 141 131 118 116 133 129 115 118 116 127 121 116 102 117 91 66 77 44 33 53
110 313 323 25 37 40 41 55 52 66 55 45 129 153 163 197 179 202 175 44 68 157 173 167 174 177 170 174 179 175 179 186 179 174 174 168 169 150 136 129 140 140 141 132 122 117 112 107 116 125 154 139 148 137 136 124 113 123 122 110 127 105 78
48 11 19 19 349 353 13 61 57 58 73 71 69 58 74 69 67 78 99 112 100 101 91 163 73 163 138 182 174 174 175 187 182 171 174 157 147 142 122 135 137 133 130 131 134 134 126 113 97 87 84 88 114 158 144 119 124 132 124 104 128 114 122
69 266 7 0 342 0 321 99 90 32 68 70 33 42 58 91 93 91 87 103 136 165 189 193 125 117 141 142 175 190 181 175 181 174 182 141 136 133 149 149 155 143 145 146 144 126 120 121 121 115 110 102 91 62 118 148 146 104 111 109 100 128 132
187 176 20 7 349 347 304 287 99 88 66 105 85 47 61 91 105 116 119 124 178 235 230 213 207 179 183 155 115 97 335 206 176 148 100 110 129 144 158 130 131 167 164 166 154 148 143 135 134 136 129 116 101 112 99 96 118 139 147 122 127 134 149
79 107 159 182 178 197 200 220 209 183 144 48 87 148 180 172 182 138 148 161 210 245 239 249 237 230 219 199 133 133 125 83 115 123 142 143 154 168 165 145 174 202 210 177 169 161 154 150 147 136 136 129 123 105 93 99 103 104 103 129 131 124 351
25 30 47 42 29 347 330 220 188 188 176 179 189 203 195 187 219 199 172 181 199 234 252 249 243 239 234 224 180 148 155 134 123 149 158 162 158 177 187 186 184 204 201 197 197 180 164 156 149 150 148 144 134 132 101 79 84 115 110 109 115 119 117
10 5 7 15 28 36 23 3 335 260 195 197 195 184 200 188 202 206 197 194 202 235 245 250 250 249 243 231 188 185 179 177 152 160 169 158 165 179 192 192 197 207 213 203 204 186 164 152 157 157 154 142 115 89 66 9 341 91 119 123 125 128 133
358 356 354 7 13 6 4 358 6 15 357 304 268 225 212 198 194 189 193 192 201 227 244 248 248 251 252 241 195 195 189 194 175 161 177 182 180 184 193 203 194 205 211 216 194 179 162 151 152 155 158 157 139 115 114 83 56 76 102 112 120 128 135
356 351 353 358 353 351 351 349 350 355 10 354 310 268 261 253 224 209 196 201 202 206 230 244 239 239 240 234 209 212 201 194 195 177 187 193 192 202 201 201 210 207 212 213 182 172 163 157 159 163 161 143 129 140 162 156 114 83 93 101 111 126 135
1 358 356 351 349 348 345 339 330 341 339 338 326 311 271 240 255 241 218 211 205 204 221 237 239 239 234 231 215 219 213 203 197 186 178 187 187 175 194 211 221 219 223 214 168 174 172 170 164 167 167 151 159 168 181 167 146 135 144 111 92 113 102
358 355 348 344 343 337 331 336 333 330 324 325 320 316 314 297 253 243 251 241 226 213 217 226 233 237 240 234 216 214 210 210 215 203 189 181 178 185 194 204 219 220 224 177 157 171 185 179 167 170 158 157 158 182 163 148 155 137 133 136 168 169 173
350 349 347 345 343 343 345 338 331 327 321 319 317 312 305 304 300 289 253 225 228 226 218 220 232 230 236 237 216 197 215 217 218 201 192 186 184 182 186 182 164 172 164 158 150 151 155 144 146 164 168 169 183 154 139 136 149 137 134 142 153 160 42
345 339 336 340 341 338 338 336 332 327 318 308 300 293 291 291 291 289 294 279 232 226 219 214 220 228 232 236 221 205 215 224 208 186 191 197 187 179 178 172 181 182 162 148 144 142 137 135 131 124 146 141 131 130 136 134 134 133 136 109 80 53 66
334 334 329 331 335 332 332 332 328 329 320 313 303 295 293 294 293 292 285 278 259 230 223 222 217 215 219 220 222 214 222 231 201 190 189 198 181 157 135 155 138 130 127 124 118 114 114 113 105 116 125 123 127 128 126 124 120 107 93 90 91 97 67
349 344 342 346 345 339 334 328 322 320 318 313 314 307 299 291 284 283 278 281 278 245 224 215 218 211 207 210 213 216 226 237 329 295 227 181 162 144 124 110 144 153 136 127 124 126 128 122 123 126 114 114 113 116 115 117 114 115 103 92 90 59 51